Tracking 19827 objects as of 21-Aug-2019
HD Live streaming from Space Station
objects crossing your sky now

FENGYUN 1C DEB

Track FENGYUN 1C DEB now!
10-day predictions


NORAD ID: 36694
Int'l Code: 1999-025DZQ
Perigee: 772.1 km
Apogee: 937.2 km
Inclination: 99.0 °
Period: 101.9 minutes
Semi major axis: 7225 km
RCS: 0.0069 m2 (small)
Launch date: May 10, 1999
Source: People's Republic of China (PRC)
Launch site: Taiyaun Space Center, China (TSC)

Note: This is SATELLITE DEBRIS
aabbcc
Your satellite tracking list
Your tracking list is empty




NASA's NSSDC Master Catalog

Two Line Element Set (TLE):
1 36694U 99025DZQ 19233.11116104  .00000222  00000-0  13354-3 0  9991
2 36694  99.0258 193.6613 0114299   1.0637 359.0757 14.13476472610265
Source of the keplerian elements: AFSPC